When you browse on this site, cookies collect data to enhance your experience and personalize the content and advertising you see.
Visit our Privacy Policy to learn more. By continuing to use the site, you agree to this use of cookies and data.
  • In Schweiz
  • Länderverzeichnis
  • Für 7 Tage
  • Wassertemperatur
  • Wetterkarte
  • Widgets
  • user-avatar
    Anmelden

    Stündliche Wetter Arakaka

    Heute, 29 Mai, Freitag

    Zeit Temperatur Niederschläge Wind Luftdruck Luftfeuchtigkeit
    00:00 +23°C° 0.1 mm 0 m/S 754 mmHg 97%
    01:00 +23°C° 0.1 mm 0 m/S 753 mmHg 97%
    02:00 +23°C° 0 mm 0 m/S 753 mmHg 98%
    03:00 +23°C° 0.1 mm 0 m/S 753 mmHg 98%
    04:00 +23°C° 0.1 mm 0 m/S 753 mmHg 98%
    05:00 +24°C° 0.1 mm 1 m/S 753 mmHg 98%
    06:00 +25°C° 0 mm 1 m/S 753 mmHg 94%
    07:00 +26°C° 0 mm 1 m/S 754 mmHg 91%
    08:00 +27°C° 0 mm 1 m/S 754 mmHg 87%
    09:00 +29°C° 0 mm 1 m/S 754 mmHg 75%
    10:00 +31°C° 0 mm 2 m/S 754 mmHg 64%
    11:00 +34°C° 0 mm 2 m/S 754 mmHg 53%
    12:00 +34°C° 0 mm 2 m/S 753 mmHg 51%
    13:00 +35°C° 0 mm 2 m/S 753 mmHg 49%
    14:00 +36°C° 0 mm 2 m/S 752 mmHg 46%
    15:00 +34°C° 0.1 mm 2 m/S 752 mmHg 53%
    16:00 +32°C° 0.1 mm 2 m/S 752 mmHg 60%
    17:00 +31°C° 0.1 mm 2 m/S 752 mmHg 67%
    18:00 +29°C° 0.2 mm 1 m/S 752 mmHg 76%
    19:00 +27°C° 0.2 mm 1 m/S 753 mmHg 85%
    20:00 +25°C° 0.2 mm 1 m/S 754 mmHg 94%
    21:00 +25°C° 0 mm 1 m/S 754 mmHg 95%
    22:00 +25°C° 0 mm 1 m/S 754 mmHg 96%
    23:00 +23°C° 0 mm 0 m/S 754 mmHg 97%

    Morgen, 30 Mai, Samstag

    Zeit Temperatur Niederschläge Wind Luftdruck Luftfeuchtigkeit
    00:00 +23°C° 0 mm 0 m/S 754 mmHg 98%
    01:00 +22°C° 0 mm 0 m/S 753 mmHg 98%
    02:00 +22°C° 0 mm 0 m/S 753 mmHg 99%
    03:00 +22°C° 0 mm 0 m/S 753 mmHg 99%
    04:00 +22°C° 0 mm 0 m/S 753 mmHg 99%
    05:00 +22°C° 0 mm 0 m/S 753 mmHg 99%
    06:00 +23°C° 0 mm 0 m/S 753 mmHg 95%
    07:00 +24°C° 0 mm 0 m/S 754 mmHg 91%
    08:00 +25°C° 0 mm 0 m/S 754 mmHg 87%
    09:00 +29°C° 0.1 mm 1 m/S 754 mmHg 77%
    10:00 +31°C° 0.1 mm 1 m/S 754 mmHg 66%
    11:00 +35°C° 0.1 mm 2 m/S 754 mmHg 55%
    12:00 +32°C° 1.7 mm 2 m/S 753 mmHg 66%
    13:00 +31°C° 1.7 mm 1 m/S 752 mmHg 77%
    14:00 +30°C° 1.7 mm 1 m/S 751 mmHg 88%
    15:00 +29°C° 1.2 mm 1 m/S 751 mmHg 90%
    16:00 +29°C° 1.2 mm 1 m/S 751 mmHg 92%
    17:00 +28°C° 1.2 mm 1 m/S 751 mmHg 94%
    18:00 +27°C° 0.7 mm 1 m/S 751 mmHg 96%
    19:00 +27°C° 0.7 mm 1 m/S 752 mmHg 97%
    20:00 +26°C° 0.7 mm 1 m/S 753 mmHg 98%
    21:00 +26°C° 0 mm 1 m/S 753 mmHg 98%
    22:00 +26°C° 0 mm 1 m/S 754 mmHg 99%
    23:00 +25°C° 0 mm 1 m/S 754 mmHg 99%

    übermorgen, 31 Mai, Sonntag

    Zeit Temperatur Niederschläge Wind Luftdruck Luftfeuchtigkeit
    00:00 +23°C° 0.1 mm 0 m/S 753 mmHg 99%
    01:00 +23°C° 0.1 mm 0 m/S 753 mmHg 99%
    02:00 +23°C° 0.1 mm 0 m/S 752 mmHg 99%
    03:00 +23°C° 0.1 mm 0 m/S 752 mmHg 99%
    04:00 +23°C° 0.1 mm 0 m/S 753 mmHg 99%
    05:00 +23°C° 0.1 mm 0 m/S 753 mmHg 99%
    06:00 +26°C° 0.8 mm 1 m/S 753 mmHg 97%
    07:00 +26°C° 0.8 mm 1 m/S 754 mmHg 96%
    08:00 +27°C° 0.8 mm 2 m/S 754 mmHg 94%
    09:00 +27°C° 0.2 mm 2 m/S 754 mmHg 90%
    10:00 +26°C° 0.2 mm 1 m/S 754 mmHg 87%
    11:00 +26°C° 0.2 mm 1 m/S 754 mmHg 83%
    12:00 +28°C° 0 mm 1 m/S 754 mmHg 77%
    13:00 +30°C° 0 mm 2 m/S 753 mmHg 70%
    14:00 +32°C° 0 mm 2 m/S 753 mmHg 64%
    15:00 +31°C° 0.1 mm 2 m/S 752 mmHg 72%
    16:00 +29°C° 0.1 mm 1 m/S 752 mmHg 81%
    17:00 +28°C° 0.1 mm 1 m/S 752 mmHg 89%
    18:00 +27°C° 0.1 mm 1 m/S 752 mmHg 92%
    19:00 +26°C° 0.1 mm 1 m/S 753 mmHg 94%
    20:00 +25°C° 0.1 mm 1 m/S 753 mmHg 96%
    21:00 +25°C° 0 mm 1 m/S 754 mmHg 97%
    22:00 +25°C° 0 mm 1 m/S 754 mmHg 98%
    23:00 +24°C° 0 mm 1 m/S 754 mmHg 99%

    1 Juni, Montag

    Zeit Temperatur Niederschläge Wind Luftdruck Luftfeuchtigkeit
    00:00 +22°C° 0 mm 0 m/S 754 mmHg 99%
    01:00 +22°C° 0 mm 0 m/S 753 mmHg 99%
    02:00 +22°C° 0 mm 0 m/S 753 mmHg 99%
    03:00 +22°C° 0 mm 0 m/S 753 mmHg 99%
    04:00 +22°C° 0 mm 0 m/S 753 mmHg 99%
    05:00 +22°C° 0 mm 0 m/S 753 mmHg 99%
    06:00 +23°C° 0 mm 0 m/S 753 mmHg 94%
    07:00 +26°C° 0 mm 1 m/S 754 mmHg 90%
    08:00 +27°C° 0 mm 1 m/S 754 mmHg 85%
    09:00 +29°C° 0.2 mm 1 m/S 754 mmHg 77%
    10:00 +31°C° 0.2 mm 1 m/S 754 mmHg 69%
    11:00 +32°C° 0.2 mm 2 m/S 754 mmHg 61%
    12:00 +32°C° 1.2 mm 1 m/S 753 mmHg 65%
    13:00 +32°C° 1.2 mm 1 m/S 753 mmHg 70%
    14:00 +31°C° 1.2 mm 1 m/S 752 mmHg 74%
    15:00 +31°C° 1.1 mm 1 m/S 752 mmHg 77%
    16:00 +30°C° 1.1 mm 1 m/S 752 mmHg 80%
    17:00 +29°C° 1.1 mm 1 m/S 752 mmHg 84%
    18:00 +28°C° 0.4 mm 1 m/S 752 mmHg 86%
    19:00 +27°C° 0.4 mm 1 m/S 753 mmHg 89%
    20:00 +26°C° 0.4 mm 1 m/S 753 mmHg 91%
    21:00 +25°C° 0 mm 1 m/S 754 mmHg 93%
    22:00 +25°C° 0 mm 1 m/S 754 mmHg 94%
    23:00 +23°C° 0 mm 0 m/S 754 mmHg 95%

    2 Juni, Dienstag

    Zeit Temperatur Niederschläge Wind Luftdruck Luftfeuchtigkeit
    00:00 +23°C° 0 mm 0 m/S 754 mmHg 96%
    01:00 +23°C° 0 mm 0 m/S 753 mmHg 96%
    02:00 +23°C° 0 mm 0 m/S 753 mmHg 97%
    03:00 +22°C° 0 mm 0 m/S 753 mmHg 97%
    04:00 +22°C° 0 mm 0 m/S 753 mmHg 97%
    05:00 +22°C° 0 mm 0 m/S 753 mmHg 97%
    06:00 +25°C° 0 mm 1 m/S 753 mmHg 93%
    07:00 +26°C° 0 mm 1 m/S 754 mmHg 89%
    08:00 +27°C° 0 mm 1 m/S 754 mmHg 84%
    09:00 +29°C° 0.1 mm 1 m/S 754 mmHg 76%
    10:00 +30°C° 0.1 mm 1 m/S 754 mmHg 67%
    11:00 +32°C° 0.1 mm 1 m/S 754 mmHg 59%
    12:00 +32°C° 0.4 mm 2 m/S 753 mmHg 61%
    13:00 +32°C° 0.4 mm 2 m/S 752 mmHg 63%
    14:00 +32°C° 0.4 mm 2 m/S 751 mmHg 65%
    15:00 +31°C° 0.2 mm 2 m/S 751 mmHg 68%
    16:00 +31°C° 0.2 mm 2 m/S 751 mmHg 70%
    17:00 +30°C° 0.2 mm 2 m/S 751 mmHg 73%
    18:00 +29°C° 0 mm 2 m/S 752 mmHg 78%
    19:00 +27°C° 0 mm 1 m/S 752 mmHg 83%
    20:00 +26°C° 0 mm 1 m/S 753 mmHg 88%
    21:00 +25°C° 0 mm 1 m/S 753 mmHg 91%
    22:00 +24°C° 0 mm 1 m/S 754 mmHg 93%
    23:00 +22°C° 0 mm 0 m/S 754 mmHg 96%

    3 Juni, Mittwoch

    Zeit Temperatur Niederschläge Wind Luftdruck Luftfeuchtigkeit
    00:00 +22°C° 0 mm 0 m/S 753 mmHg 97%
    01:00 +21°C° 0 mm 0 m/S 753 mmHg 98%
    02:00 +21°C° 0 mm 0 m/S 752 mmHg 99%
    03:00 +21°C° 0 mm 0 m/S 752 mmHg 99%
    04:00 +21°C° 0 mm 0 m/S 753 mmHg 99%
    05:00 +21°C° 0 mm 0 m/S 753 mmHg 99%
    06:00 +22°C° 0 mm 0 m/S 753 mmHg 92%
    07:00 +26°C° 0 mm 1 m/S 753 mmHg 86%
    08:00 +28°C° 0 mm 1 m/S 754 mmHg 79%
    09:00 +29°C° 0 mm 1 m/S 754 mmHg 70%
    10:00 +31°C° 0 mm 1 m/S 754 mmHg 62%
    11:00 +32°C° 0 mm 1 m/S 754 mmHg 53%
    12:00 +33°C° 0 mm 1 m/S 753 mmHg 48%
    13:00 +34°C° 0 mm 1 m/S 752 mmHg 44%
    14:00 +35°C° 0 mm 1 m/S 751 mmHg 40%
    15:00 +35°C° 0 mm 1 m/S 751 mmHg 43%
    16:00 +35°C° 0 mm 2 m/S 751 mmHg 47%
    17:00 +34°C° 0 mm 2 m/S 751 mmHg 51%
    18:00 +31°C° 0 mm 2 m/S 751 mmHg 60%
    19:00 +28°C° 0 mm 1 m/S 752 mmHg 70%
    20:00 +26°C° 0 mm 1 m/S 752 mmHg 80%
    21:00 +26°C° 0 mm 1 m/S 753 mmHg 84%
    22:00 +25°C° 0 mm 1 m/S 753 mmHg 89%
    23:00 +24°C° 0 mm 1 m/S 753 mmHg 93%
    Mehr zeigen